Wind_Speed
69 66 67 68 71 74 75 74 75 77 76 78 78 75 70 65 64 56 49 45 42 44 48 49 49 48 49 47 48 48 50 51 52 55 59 61 67 73 78 81 83 85 85
69 70 71 71 73 78 79 77 76 77 79 82 79 77 71 68 66 56 50 46 43 45 49 50 51 50 51 50 51 51 53 58 58 60 63 65 73 75 82 87 87 91 94
71 72 74 75 77 79 79 77 78 80 81 85 81 75 73 73 67 58 51 47 45 48 50 51 52 53 54 54 56 55 58 61 63 66 69 71 77 80 85 93 94 99 103
79 80 80 80 79 79 78 79 81 81 85 87 80 78 77 73 62 55 47 46 47 50 51 53 54 55 56 58 60 60 63 64 66 71 76 80 84 87 82 93 101 103 96
85 85 82 81 80 82 82 82 83 86 89 85 81 78 73 63 54 45 42 46 47 51 52 54 56 58 59 61 63 65 66 66 70 75 81 87 90 94 91 87 97 88 90
84 83 84 86 86 84 84 85 90 92 87 83 75 70 62 54 47 42 45 48 49 52 53 56 58 59 61 63 65 66 67 69 74 79 88 91 95 97 93 91 82 78 85
86 85 86 87 87 89 89 91 88 85 80 70 70 63 55 49 43 44 46 49 51 53 55 57 60 60 62 64 67 69 70 73 78 86 92 94 97 97 96 81 71 71 75
90 89 90 91 93 94 91 83 82 75 66 68 65 55 47 43 43 45 48 50 53 55 57 60 62 62 64 67 70 71 73 76 83 91 95 98 101 99 90 77 64 60 66
97 96 95 93 91 85 77 71 71 73 65 65 63 49 44 43 45 47 52 53 54 57 58 61 63 64 66 69 72 74 76 81 89 94 96 97 98 96 84 73 60 52 54
92 90 89 86 83 77 73 73 73 71 62 60 58 47 45 45 47 52 55 55 56 58 61 63 65 66 69 71 74 75 80 85 93 95 96 99 97 87 78 67 55 50 41
95 93 91 88 82 76 74 74 74 70 61 58 57 52 48 50 52 54 57 56 58 61 63 64 66 68 70 74 75 77 82 89 94 95 95 97 92 79 72 62 51 46 37
97 95 91 89 86 81 76 73 71 68 60 59 57 55 54 55 55 56 58 58 60 62 64 66 68 69 72 75 76 77 84 92 92 93 92 94 84 74 64 55 48 40 32
99 95 92 89 85 80 75 71 69 69 63 63 61 58 58 57 57 59 59 61 63 64 66 69 69 71 74 75 77 79 88 93 92 93 92 92 77 69 59 50 41 33 29
99 98 94 93 89 83 81 82 77 75 70 69 65 64 62 60 60 60 61 64 65 67 69 70 71 74 75 76 78 83 89 93 93 94 94 87 71 61 54 46 36 29 28
100 99 96 92 91 87 83 85 83 81 77 75 71 68 66 65 65 65 66 67 68 70 70 71 73 75 76 77 80 85 90 93 95 95 95 81 65 55 50 40 31 26 25
102 100 97 94 91 89 87 86 85 83 80 78 76 71 67 67 69 69 68 68 69 70 71 72 74 76 77 79 83 87 91 95 93 91 90 77 60 51 46 36 27 24 23
101 101 97 93 92 90 86 83 82 78 74 71 71 71 73 73 71 70 69 70 70 71 73 74 75 77 79 79 84 88 92 93 92 88 82 71 54 47 41 33 22 21 21
101 100 99 94 93 90 86 87 84 80 74 73 74 76 75 74 73 73 72 72 72 72 74 75 77 76 79 81 86 88 91 91 91 84 75 63 51 43 37 30 17 18 20
100 101 99 97 93 89 88 86 82 74 70 70 70 72 72 74 75 75 74 73 71 74 74 77 78 78 81 84 85 87 90 89 90 80 68 57 47 40 31 26 14 18 23
100 103 102 99 94 91 92 88 84 78 73 72 69 70 74 77 75 76 74 71 72 73 77 79 80 80 83 83 85 87 89 87 87 75 63 52 43 35 26 22 13 18 26
104 101 103 102 96 93 92 87 82 76 73 70 70 69 70 72 74 72 70 71 73 77 79 80 81 82 84 83 83 86 86 86 82 70 58 48 39 30 21 18 15 24 34
103 103 103 100 97 96 90 85 81 75 72 70 71 68 69 70 71 72 71 74 77 78 80 79 82 84 83 80 82 85 83 85 75 63 51 42 36 25 18 17 19 28 38
99 107 104 101 97 94 90 82 80 75 72 73 69 68 68 69 72 72 73 74 75 77 77 79 82 83 81 79 81 83 84 83 74 59 49 38 32 22 15 18 23 32 44
100 96 97 93 93 93 90 84 79 78 76 72 69 68 69 71 70 70 71 73 72 73 76 79 79 80 80 79 82 82 83 79 71 55 46 35 28 16 16 21 28 37 46
88 87 87 85 82 83 85 82 78 76 74 72 71 70 70 71 69 69 71 71 71 75 76 77 76 78 79 78 81 82 79 77 68 52 42 32 24 13 18 24 35 40 53
74 73 74 71 64 63 61 70 70 70 70 71 71 72 73 68 67 69 70 70 72 74 75 73 74 77 79 79 79 80 75 75 61 49 38 28 21 13 22 28 41 47 59
Wind_Direction
283 287 289 293 295 296 298 299 302 305 303 305 308 309 307 307 310 304 297 285 288 294 298 297 296 296 298 300 299 295 297 296 294 298 299 296 295 292 292 289 287 285 279
282 287 290 292 291 293 294 298 301 301 301 305 306 307 304 305 306 302 294 284 287 292 296 294 295 295 298 300 299 299 300 298 297 300 298 295 295 297 295 293 290 284 282
284 284 285 286 288 289 293 296 297 298 300 302 304 303 302 303 303 299 288 282 286 291 294 295 295 295 299 301 303 302 300 301 302 302 300 298 300 298 297 295 291 289 286
283 283 284 286 288 290 294 293 296 296 298 301 301 299 299 299 299 294 281 280 285 291 294 295 297 298 302 304 305 303 303 303 308 307 305 304 301 299 297 298 295 293 284
280 282 284 285 287 289 290 292 292 295 298 299 297 295 293 295 297 286 279 282 286 292 294 298 299 301 304 304 305 305 305 308 310 309 310 308 306 304 305 301 296 290 280
277 280 282 284 285 286 287 290 293 294 294 296 293 290 291 293 288 281 282 284 289 293 297 299 301 302 303 303 306 305 307 312 312 313 312 310 309 308 307 304 296 290 284
274 277 279 281 282 283 286 290 290 290 292 291 289 289 290 288 281 281 284 286 289 294 297 300 301 302 302 305 307 307 312 314 315 316 315 312 310 310 311 305 297 288 283
271 272 273 276 277 280 283 285 287 288 289 288 286 286 286 282 278 283 287 288 290 295 299 300 302 303 305 306 308 312 315 318 318 317 316 314 313 315 310 306 296 289 281
267 269 271 272 274 277 281 281 282 285 287 287 283 282 282 279 278 284 287 288 292 295 300 301 302 305 305 308 311 315 317 319 320 318 317 315 316 318 310 307 298 286 280
266 267 268 270 271 273 275 276 278 280 283 285 284 280 281 281 283 285 286 290 292 297 300 301 303 304 306 309 314 317 320 322 321 318 317 318 320 317 312 306 298 285 280
266 266 268 269 271 272 272 274 276 279 280 284 286 283 282 282 283 283 287 290 293 297 300 301 303 304 307 310 315 319 321 322 321 318 319 322 322 316 312 306 298 286 280
264 265 268 269 271 270 270 273 275 276 277 280 283 282 281 281 282 285 288 290 293 297 300 301 303 305 307 312 317 320 322 321 320 319 323 326 321 317 311 307 299 289 277
264 265 266 268 267 268 269 269 271 275 279 279 279 280 280 281 283 286 289 291 294 297 300 301 303 305 308 314 318 321 322 321 320 321 327 327 321 317 311 307 301 288 264
261 262 261 262 264 265 266 268 271 274 277 278 281 281 283 284 286 287 290 292 295 298 299 301 303 306 310 315 319 321 322 323 321 324 328 325 321 318 313 308 300 278 253
258 257 258 260 261 261 262 264 268 270 274 277 280 281 283 285 286 287 290 292 296 297 298 301 303 307 312 316 318 321 323 323 324 326 330 324 320 319 313 309 296 270 249
255 257 256 257 259 259 260 263 266 267 270 275 277 279 280 282 284 287 289 293 295 296 298 301 305 308 312 316 318 321 323 322 324 328 331 323 320 318 312 307 292 265 242
253 254 254 255 258 261 262 263 264 267 269 271 273 275 278 281 283 286 290 291 294 297 298 302 306 310 313 315 319 321 323 321 324 329 331 322 320 318 312 302 287 255 230
249 251 254 253 255 256 259 263 266 265 267 269 272 275 278 280 282 284 288 290 293 296 298 302 306 311 313 315 318 321 322 322 325 330 328 322 320 316 310 297 277 245 212
245 249 250 251 251 254 256 259 262 265 266 267 270 274 277 279 281 283 285 288 293 293 297 302 307 309 313 314 317 320 322 324 326 331 326 323 320 315 306 289 263 231 201
245 247 248 248 250 252 254 256 260 262 264 264 267 272 274 276 279 281 284 287 289 293 296 302 305 308 310 312 317 320 322 325 327 332 325 324 319 311 303 277 242 214 192
243 244 246 247 248 248 251 253 257 260 261 264 265 268 273 276 278 281 284 286 289 292 297 300 303 305 308 312 317 320 322 326 328 332 324 325 317 308 298 261 221 203 188
237 240 243 245 246 248 248 251 252 254 258 262 263 266 270 274 276 279 283 285 288 292 296 300 302 304 307 313 317 321 324 326 330 329 325 326 315 307 289 241 212 197 186
235 235 238 244 248 250 251 251 252 254 258 260 263 265 269 273 275 278 281 284 289 291 295 298 300 303 307 313 318 322 325 325 330 327 326 326 312 306 272 225 202 192 187
241 241 242 240 242 246 250 251 252 254 256 259 261 262 265 268 272 276 279 282 286 291 294 295 298 304 308 314 320 322 323 325 330 325 326 322 310 302 246 215 194 190 185
241 244 244 244 242 243 244 247 249 253 255 255 256 259 262 265 269 274 277 281 286 289 291 294 301 306 309 315 320 321 321 325 327 323 324 317 306 285 222 209 192 187 180
234 240 245 244 243 241 240 239 241 243 246 249 254 256 259 264 269 273 276 281 283 286 291 297 302 306 309 315 320 319 320 324 323 319 319 312 301 260 213 201 192 187 180
Height
10857 10858 10857 10856 10849 10843 10840 10838 10834 10830 10822 10816 10814 10810 10804 10801 10796 10792 10789 10786 10784 10781 10779 10776 10772 10768 10764 10761 10757 10752 10748 10745 10743 10738 10731 10726 10717 10712 10702 10695 10689 10683 10679
10849 10848 10845 10844 10838 10831 10825 10825 10822 10816 10808 10804 10802 10798 10792 10788 10785 10781 10778 10775 10773 10772 10769 10766 10762 10758 10754 10749 10745 10741 10736 10730 10727 10721 10716 10709 10700 10693 10681 10669 10663 10655 10649
10839 10837 10833 10830 10827 10819 10815 10813 10809 10803 10797 10792 10790 10785 10781 10776 10772 10769 10766 10764 10762 10761 10758 10754 10750 10746 10741 10736 10731 10726 10722 10714 10707 10700 10693 10687 10679 10674 10660 10642 10629 10618 10607
10818 10817 10815 10814 10812 10807 10805 10800 10796 10791 10784 10781 10777 10772 10768 10764 10760 10756 10754 10752 10752 10750 10746 10742 10738 10732 10727 10722 10717 10711 10704 10699 10688 10677 10666 10657 10650 10642 10647 10619 10590 10577 10564
10798 10797 10797 10794 10795 10793 10789 10786 10782 10778 10772 10769 10763 10758 10753 10751 10748 10744 10743 10742 10741 10738 10735 10730 10724 10718 10713 10708 10701 10694 10686 10679 10667 10656 10643 10631 10618 10605 10598 10597 10555 10542 10523
10781 10781 10779 10777 10776 10775 10773 10771 10767 10762 10758 10755 10748 10742 10740 10738 10736 10735 10734 10731 10729 10726 10722 10716 10711 10705 10700 10694 10686 10678 10670 10659 10647 10633 10619 10606 10591 10575 10563 10547 10526 10512 10485
10765 10765 10761 10759 10757 10756 10757 10756 10752 10746 10743 10738 10732 10730 10728 10725 10724 10724 10722 10719 10716 10714 10710 10704 10698 10693 10687 10679 10671 10661 10652 10640 10624 10610 10596 10579 10561 10545 10525 10513 10501 10484 10465
10745 10747 10744 10741 10739 10739 10740 10739 10735 10731 10728 10723 10719 10718 10715 10713 10712 10712 10709 10707 10703 10700 10696 10690 10684 10678 10671 10663 10654 10643 10631 10619 10603 10588 10572 10554 10535 10516 10495 10484 10475 10464 10447
10721 10723 10723 10724 10719 10722 10724 10722 10718 10716 10715 10710 10707 10705 10702 10700 10700 10699 10696 10693 10690 10687 10682 10676 10669 10662 10654 10647 10636 10625 10612 10599 10584 10567 10550 10531 10511 10490 10470 10458 10449 10445 10433
10698 10699 10699 10701 10703 10707 10707 10705 10703 10701 10702 10698 10696 10693 10689 10687 10687 10685 10683 10680 10677 10673 10668 10661 10654 10647 10639 10631 10621 10608 10594 10580 10563 10547 10531 10509 10488 10469 10451 10438 10430 10424 10424
10672 10676 10678 10680 10685 10689 10688 10686 10685 10687 10687 10686 10684 10680 10677 10674 10674 10673 10670 10667 10664 10659 10654 10647 10640 10633 10624 10615 10606 10593 10578 10563 10547 10529 10512 10489 10469 10450 10434 10422 10414 10409 10410
10650 10656 10658 10661 10665 10667 10669 10669 10669 10670 10674 10673 10671 10668 10666 10664 10664 10661 10658 10655 10651 10646 10640 10633 10626 10619 10611 10601 10591 10578 10561 10546 10530 10512 10494 10469 10450 10434 10419 10409 10400 10397 10396
10625 10633 10639 10640 10644 10648 10650 10650 10652 10654 10658 10657 10657 10656 10654 10653 10651 10648 10646 10643 10638 10633 10626 10619 10612 10605 10596 10587 10575 10562 10547 10530 10512 10494 10474 10453 10435 10419 10405 10396 10390 10386 10384
10609 10608 10613 10616 10622 10628 10630 10628 10632 10635 10639 10639 10640 10640 10640 10639 10636 10634 10632 10628 10624 10618 10611 10605 10598 10590 10581 10573 10560 10547 10531 10513 10495 10476 10456 10437 10421 10407 10394 10385 10381 10377 10375
10579 10580 10587 10592 10596 10607 10611 10609 10614 10618 10622 10623 10625 10624 10623 10622 10621 10619 10617 10613 10609 10603 10597 10590 10583 10575 10568 10558 10546 10533 10516 10498 10481 10460 10439 10420 10408 10396 10384 10377 10372 10369 10368
10555 10561 10567 10572 10576 10583 10589 10591 10595 10600 10605 10609 10608 10609 10609 10607 10606 10605 10601 10599 10594 10588 10582 10576 10569 10561 10553 10543 10531 10518 10503 10484 10469 10449 10428 10407 10396 10385 10375 10370 10365 10363 10364
10527 10533 10544 10555 10559 10563 10569 10573 10574 10582 10589 10591 10592 10593 10592 10592 10591 10589 10587 10584 10580 10573 10567 10562 10557 10549 10539 10529 10516 10502 10489 10471 10453 10435 10419 10396 10385 10376 10367 10363 10360 10359 10361
10500 10508 10516 10528 10534 10540 10547 10548 10554 10565 10572 10575 10576 10576 10576 10576 10574 10573 10573 10569 10564 10557 10552 10547 10542 10535 10524 10514 10502 10488 10475 10455 10437 10421 10406 10387 10374 10368 10361 10355 10356 10356 10360
10474 10481 10489 10498 10509 10518 10522 10527 10534 10544 10550 10554 10556 10557 10558 10558 10558 10557 10556 10553 10548 10542 10538 10531 10525 10520 10508 10498 10488 10475 10460 10441 10422 10409 10392 10378 10365 10360 10355 10350 10352 10354 10358
10447 10453 10461 10472 10487 10495 10498 10506 10514 10524 10530 10533 10538 10540 10539 10541 10542 10540 10540 10538 10532 10527 10523 10516 10510 10503 10495 10485 10473 10460 10445 10429 10411 10394 10380 10367 10358 10354 10350 10346 10349 10352 10358
10421 10427 10434 10447 10460 10471 10476 10485 10495 10504 10509 10517 10520 10520 10522 10524 10524 10524 10523 10521 10517 10512 10507 10502 10493 10488 10481 10472 10459 10446 10429 10414 10398 10384 10371 10359 10351 10348 10344 10343 10347 10350 10356
10397 10397 10401 10425 10436 10446 10457 10467 10476 10483 10491 10499 10500 10503 10504 10506 10507 10506 10506 10504 10502 10497 10492 10486 10478 10473 10465 10457 10445 10432 10414 10400 10385 10372 10360 10352 10345 10342 10340 10340 10344 10350 10357
10368 10372 10384 10401 10418 10428 10439 10451 10458 10467 10474 10477 10483 10485 10487 10489 10489 10490 10490 10488 10486 10481 10476 10471 10464 10456 10449 10442 10431 10417 10402 10387 10373 10363 10351 10344 10340 10337 10336 10339 10343 10350 10358
10336 10352 10365 10387 10401 10409 10419 10431 10442 10447 10454 10461 10465 10468 10470 10472 10473 10474 10473 10472 10470 10465 10461 10457 10450 10441 10433 10426 10416 10402 10391 10375 10363 10354 10344 10338 10336 10335 10332 10337 10341 10349 10358
10317 10333 10348 10363 10376 10389 10400 10414 10423 10431 10439 10444 10447 10451 10453 10455 10458 10457 10458 10456 10454 10450 10447 10442 10436 10426 10416 10412 10402 10390 10378 10364 10353 10343 10337 10332 10330 10331 10331 10336 10341 10348 10358
10301 10314 10325 10340 10357 10371 10382 10392 10403 10410 10418 10424 10429 10433 10435 10440 10442 10442 10441 10441 10439 10435 10431 10427 10420 10411 10404 10398 10388 10377 10365 10354 10344 10336 10331 10326 10326 10327 10328 10334 10340 10347 10358